Location: Oshawa
(43.9000°N, 78.8670°W)
Time: 17:05:54
(UTC-05:00)

Explorer 11/Cluster Stage 4 - Visible Passes

Search period start: 24 November 2017 00:00
Search period end: 04 December 2017 00:00
Orbit: 467 x 1262 km, 28.8° (Epoch: 24 November)

Date Brightness Start Highest point End Pass type
(mag) Time Alt. Az. Time Alt. Az. Time Alt. Az.
24 Nov 9.5 03:35:08 12° SSE 03:35:08 12° SSE 03:36:13 10° SE visible
24 Nov 8.9 05:17:19 11° SW 05:21:32 18° S 05:25:27 10° SE visible
25 Nov 9.5 03:25:38 12° SE 03:25:38 12° SE 03:26:41 10° SE visible
25 Nov 8.8 05:07:49 14° SSW 05:11:08 20° S 05:15:26 10° SE visible
26 Nov 9.5 03:16:04 12° SE 03:16:04 12° SE 03:16:53 10° SE visible
26 Nov 8.7 04:58:15 18° SSW 05:00:43 21° S 05:05:20 10° SE visible
26 Nov 8.9 06:44:42 10° SW 06:48:32 16° SSW 06:51:57 10° SSE visible
27 Nov 9.6 03:06:27 11° SE 03:06:27 11° SE 03:06:55 10° SE visible
27 Nov 8.7 04:48:37 21° SSW 04:50:16 22° S 04:55:11 10° SE visible
27 Nov 8.9 06:34:09 10° SW 06:38:06 16° SSW 06:41:39 10° SSE visible
28 Nov 9.8 02:56:47 10° SE 02:56:47 10° SE 02:56:50 10° ESE visible
28 Nov 8.6 04:38:57 23° SSW 04:39:48 23° S 04:44:58 10° SE visible
28 Nov 9.0 06:23:38 10° SW 06:27:39 16° SSW 06:31:17 10° SSE visible
29 Nov 8.7 04:29:16 24° S 04:29:18 24° S 04:34:41 10° SE visible
29 Nov 9.0 06:13:11 10° SW 06:17:11 16° SSW 06:20:49 10° SSE visible
30 Nov 8.7 04:19:34 24° S 04:19:34 24° S 04:24:21 10° SE visible
30 Nov 9.1 06:02:46 10° SW 06:06:41 15° SSW 06:10:16 10° S visible
01 Dec 8.9 04:09:52 23° S 04:09:52 23° S 04:13:58 10° SE visible
01 Dec 9.1 05:52:25 10° SW 05:56:09 14° SSW 05:59:37 10° S visible
02 Dec 9.0 04:00:10 21° SSE 04:00:10 21° SSE 04:03:30 10° SE visible
02 Dec 9.2 05:42:20 10° SW 05:45:36 13° SSW 05:48:50 10° S visible
03 Dec 9.2 03:50:28 18° SSE 03:50:28 18° SSE 03:52:59 10° SE visible
03 Dec 9.3 05:32:38 11° SW 05:35:02 12° SSW 05:37:52 10° S visible
